Home   Weather   Basel   Past weeks

Flag for Switzerland Past Weather in Basel, Basel-Stadt, Switzerland — Yesterday and Last 2 Weeks

Now
65 °F

Overcast.


Feels Like: 65 °F
Forecast: 61 / 85 °F
Wind: 6 mph from South

Location: Bale-Mulhouse

Current Time: Aug 17, 2017 at 5:54:21 am

Latest Report: Aug 17, 2017 at 5:00 am


Visibility: 6 mi

Pressure: 30.09 "Hg

Humidity: 94%

Dew Point: 63 °F

Location of BaselLocation

Past Weather in Basel — Graph

°F

Basel Temperature Yesterday

Maximum temperature yesterday: 82 °F (at 7:00 pm)
Minimum temperature yesterday: 61 °F (at 7:00 am)
Average temperature yesterday: 72 °F

High & Low Weather Summary for the Past Weeks

 TemperatureHumidityPressure
High88 °F (Aug 3, 4:00 pm)98% (Aug 14, 6:00 am)30.19 "Hg (Aug 14, 6:00 am)
Low50 °F (Aug 7, 6:00 am)32% (Aug 7, 7:00 pm)29.83 "Hg (Aug 8, 6:00 am)
Average68 °F73%30.06 "Hg
* Reported Aug 2 4:00 am — Aug 17 4:00 am, Basel. Weather by CustomWeather, © 2017

Note: Actual official high and low records may vary slightly from our data, if they occured in-between our weather recording intervals... More about our weather records

Advertising

Basel Weather History for the Previous 24 Hours

Scroll right to see more
 ConditionsComfort  
Time TempWeatherWind HumidityBarometerVisibility
4:00 am
Thu, Aug 17
65 °FOvercast.6 mph93%30.10 "Hg14 mi
3:00 am64 °FOvercast.3 mph94%30.10 "Hg16 mi
2:00 am63 °FPassing clouds.3 mph92%30.11 "Hg22 mi
1:00 am64 °FMild.5 mph90%30.12 "Hg28 mi
12:00 am68 °FThundershowers. Overcast.12 mph71%30.13 "Hg1 mi
11:00 pm
Wed, Aug 16
70 °FOvercast.3 mph80%30.10 "Hg12 mi
10:00 pm73 °FOvercast.1 mph70%30.10 "Hg12 mi
9:00 pm73 °FOvercast.5 mph77%30.09 "Hg19 mi
8:00 pm78 °FOvercast.3 mph60%30.07 "Hg25 mi
7:00 pm82 °FOvercast.7 mph52%30.06 "Hg25 mi
6:00 pm81 °FOvercast.5 mph54%30.07 "Hg25 mi
5:00 pm81 °FOvercast.6 mph54%30.06 "Hg25 mi
4:00 pm81 °FOvercast.5 mph51%30.08 "Hg25 mi
3:00 pm81 °FOvercast.5 mph52%30.09 "Hg25 mi
2:00 pm80 °FOvercast.2 mph54%30.10 "Hg25 mi
1:00 pm80 °FPartly sunny.3 mph54%30.11 "Hg19 mi
12:00 pm77 °FScattered clouds.2 mph57%30.13 "Hg19 mi
11:00 am75 °FScattered clouds.3 mph62%30.14 "Hg19 mi
10:00 am73 °FPassing clouds.3 mph71%30.15 "Hg12 mi
9:00 am69 °FPassing clouds.7 mph79%30.16 "Hg12 mi
8:00 am65 °FScattered clouds.5 mph91%30.16 "Hg12 mi
7:00 am61 °FLow clouds.3 mph95%30.16 "Hg5 mi
6:00 am62 °FCool.2 mph93%30.16 "Hg2 mi
5:00 am64 °FOvercast.3 mph94%30.16 "Hg16 mi
Weather by CustomWeather, © 2017

See weather overviewHow to use our weather pages